Weather observations for the past three days for
Oxnard, Oxnard Airport
Imperial (Metric)
Date Time (pdt) Wind (mph) Vis. (mi.) Weather Sky Cond. Temperature (ºF) Relative Humidity Wind Chill (°F) Heat Index (°F) Pressure Precipitation (in)
Air Dwpt 6 hour altimeter (in) sea level (mb) 1 hr 3 hr 6 hr
Max. Min.
17 20:51 W 12 10.00 Light Rain CLR 63 59 87% 29.92 1013.0
17 19:51 W 14 10.00 Light Rain CLR 64 59 84% 29.9 1012.4
17 18:51 W 13 10.00 Light Rain CLR 68 60.1 76% 29.9 1012.2
17 17:51 W 15 10.00 Light Rain CLR 66.9 59 76% 29.9 1012.3
17 16:51 W 17 10.00 Light Rain CLR 72 59 75 70 64% 29.91 1012.7
17 15:51 W 16 10.00 Light Rain CLR 72 59 64% 29.93 1013.6
17 14:51 W 16 10.00 Light Rain CLR 73 60.1 64% 29.96 1014.3
17 13:51 W 15 10.00 Fair CLR 72 61 68% 29.97 1014.9
17 12:51 W 10 G 22 10.00 Fair CLR 72 61 68% 29.99 1015.6
17 11:51 W 7 10.00 Fair CLR 73 62.1 69% 29.99 1015.6
17 10:51 SW 6 10.00 Fair CLR 72 62.1 72 61 71% 29.99 1015.5
17 09:51 SW 5 10.00 Fair CLR 71.1 62.1 73% 29.99 1015.4
17 08:51 S 6 10.00 Fair CLR 70 62.1 76% 29.98 1015.2
17 07:51 Calm 9.00 Fair CLR 68 61 78% 29.98 1015.1
17 06:51 Calm 10.00 Fair CLR 64 57.9 81% 29.97 1014.6
17 05:51 Calm 10.00 Fair CLR 62.1 57 84% 29.95 1014.0
17 04:51 Calm 10.00 Fair CLR 63 57.9 64.9 62.1 84% 29.94 1013.8
17 03:51 E 3 10.00 Fair CLR 63 57.9 84% 29.93 1013.3
17 02:51 Calm 10.00 Fair CLR 63 59 87% 29.93 1013.3
17 01:51 W 3 9.00 Fair CLR 62.1 57.9 86% 29.92 1013.2
17 00:51 W 3 10.00 Fair CLR 64 57.9 81% 29.93 1013.4
16 23:51 Calm 10.00 Fair CLR 64 57.9 81% 29.93 1013.4
16 22:51 Calm 10.00 Fair CLR 64.9 57.9 71.1 63 78% 29.93 1013.6
16 21:51 W 6 10.00 Fair CLR 63 57.9 84% 29.93 1013.6
16 20:51 W 8 10.00 Fair CLR 64 57.9 81% 29.94 1013.6
16 19:51 W 10 10.00 Fair CLR 66 57.9 75% 29.93 1013.4
16 18:51 W 14 10.00 Fair CLR 68 59 73% 29.93 1013.3
16 17:51 W 16 10.00 Fair CLR 69.1 59 70% 29.94 1013.6
16 16:51 W 16 10.00 Fair CLR 71.1 59 75 71.1 66% 29.94 1013.9
16 15:51 W 15 10.00 Fair CLR 73 60.1 64% 29.96 1014.5
16 14:51 W 17 10.00 Fair CLR 73.9 59 60% 29.98 1015.0
16 13:51 W 15 10.00 Fair CLR 73 60.1 64% 29.99 1015.5
16 12:51 W 9 10.00 Fair CLR 73 61 66% 30.01 1016.0
16 11:51 SW 8 10.00 Fair CLR 73 60.1 64% 30.01 1016.3
16 10:51 W 8 10.00 Fair CLR 73 59 73.9 62.1 62% 30.01 1016.1
16 09:51 W 5 10.00 Fair CLR 72 59 64% 30.01 1016.1
16 08:51 Vrbl 5 10.00 Fair CLR 69.1 60.1 73% 30.01 1016.0
16 07:51 N 3 10.00 Fair CLR 66.9 60.1 79% 30 1015.7
16 06:51 E 3 9.00 Fair CLR 64 60.1 87% 29.99 1015.3
16 05:51 Calm 10.00 Fair CLR 62.1 59 90% 29.98 1015.2
16 04:51 N 3 10.00 Fair CLR 62.1 59 64 62.1 90% 29.96 1014.5
16 03:51 Calm 10.00 Fair CLR 63 59 87% 29.95 1014.2
16 01:51 W 8 10.00 Fair CLR 63 57.9 84% 29.96 1014.3
16 00:51 W 5 10.00 Fair CLR 63 57.9 84% 29.97 1014.9
15 23:51 Calm 10.00 Fair CLR 64 59 84% 29.97 1014.9
15 22:51 W 7 9.00 Fair CLR 64 59 70 63 84% 29.97 1014.8
15 21:51 W 6 10.00 Fair CLR 64 59 84% 29.96 1014.5
15 20:51 W 8 10.00 Fair CLR 64 57.9 81% 29.95 1014.0
15 19:51 W 10 10.00 Fair CLR 64.9 57.9 78% 29.94 1013.8
15 18:51 W 13 10.00 Fair CLR 66 57.9 75% 29.94 1013.6
15 17:51 W 16 10.00 Fair CLR 69.1 59 70% 29.94 1013.6
15 16:51 W 17 10.00 Fair CLR 70 59 72 68 68% 29.95 1014.0
15 15:51 W 20 10.00 Fair CLR 70 59 68% 29.96 1014.4
15 14:51 W 16 10.00 Fair CLR 70 59 68% 29.98 1015.2
15 13:51 W 16 9.00 Partly Cloudy SCT008 70 60.1 71% 30.01 1016.1
15 12:51 W 12 10.00 Fair CLR 71.1 59 66% 30.03 1016.9
15 11:51 W 12 10.00 Fair CLR 71.1 59 66% 30.05 1017.3
15 10:51 W 10 10.00 Fair CLR 69.1 57.9 69.1 62.1 68% 30.06 1017.7
15 09:51 W 9 10.00 Mostly Cloudy BKN008 66 59 78% 30.06 1017.9
15 08:51 SW 5 8.00 Overcast OVC007 64 60.1 87% 30.06 1017.9
15 07:51 Calm 6.00 Fog/Mist OVC006 63 59 87% 30.06 1017.8
15 06:51 Calm 7.00 Overcast OVC006 62.1 59 90% 30.04 1017.3
15 05:51 NE 3 9.00 Overcast OVC007 63 59 87% 30.05 1017.3
15 04:51 N 3 10.00 Overcast OVC008 63 59 63 62.1 87% 30.04 1017.2
15 03:51 NW 3 10.00 Overcast OVC008 63 59 87% 30.03 1016.7
15 02:51 W 7 10.00 Overcast OVC007 63 59 87% 30.02 1016.6
15 01:51 W 9 10.00 Overcast OVC007 62.1 59 90% 30.02 1016.5
15 00:51 W 9 10.00 Fair CLR 62.1 59 90% 30.03 1016.8
14 23:51 W 9 10.00 A Few Clouds FEW007 63 59 87% 30.03 1016.7
14 22:51 W 9 10.00 Overcast OVC007 63 59 66.9 63 87% 30.03 1016.7
14 21:51 W 10 10.00 Partly Cloudy SCT007 63 59 87% 30.03 1016.7
Date Time (pdt) Wind (mph) Vis. (mi.) Weather Sky Cond. Air Dwpt Max. Min. Relative Humidity Wind Chill (°F) Heat Index (°F) altimeter (in) sea level (mb) 1 hr 3 hr 6 hr
6 hour
Temperature (ºF) Pressure Precipitation (in)